Location: Unspecified
(42.3650°N, 71.1030°W)
Time: 13:37:01
(UTC+00:00)

Explorer 11/Cluster Stage 4 - Pass Details

Date: 28 June 2024
Orbit: 465 x 1215 km, 28.8° (Epoch: 19 July)

Event Time Altitude Azimuth Distance (km) Brightness Sun altitude
Rises 21:46:19 0° 218° (SW) 3,598 10.4 26.5°
Reaches altitude 10° 21:49:40 10° 200° (SSW) 2,790 9.6 25.9°
Maximum altitude 21:54:15 19° 159° (SSE) 2,359 8.9 25.0°
Drops below altitude 10° 21:59:13 10° 118° (ESE) 3,072 9.1 24.1°
Sets 22:03:08 0° 102° (ESE) 4,098 9.7 23.4°
